sat.trackr.live / text

‹ back to catalog

KUIPER-00100

NORAD 65139 · 2025-171H

PAYLOAD ACTIVE UNKNOWN

§ Identity

Operator
Country
US
Launch date
2025-08-11
Launch site
AFETR
Launch vehicle
Mass (kg)
RCS (m²)

External: N2YO · Heavens-Above · Gunter

§ Orbital elements

Epoch: 2026-09-21T14:08:58.016832Z

Period
97.30 min
Inclination
51.9027°
Eccentricity
0.0000459
Mean motion
14.79932903 rev/d
Perigee alt
629.2 km
Apogee alt
629.9 km
Semi-major
7,007.7 km
B*
3.1477e-4
RAAN
4.3062°
Arg perigee
94.7398°
Mean anomaly
265.3617°
Rev number
6,200

§ Raw data

KUIPER-001001 65139U 25171H   26264.58956038  .00002179  00000+0  31477-3 0  99972 65139  51.9027   4.3062 0000459  94.7398 265.3617 14.79932903 62008

JSON: /api/v1/satellites/65139 · /tle

For live sub-satellite position, see the globe view (requires WebGL).

§ Visibility from observer

Set your observer location to see the next 7 days of passes ≥ 10°. The values pass through the URL so the page stays shareable.

No JS? Fill the form by hand. The geolocation button needs JavaScript.